Temp
5 5 4 4 4 4 4 4 4 3 3 3 3 3 3 2 2 2 2 2 2 2 2 2 2 2 2 2 2 2 2 1 1 2 2 2 2 1 1 1 1 1 1 1 2 2 2 2 2 2 2 3 3 3 3 3 4 4 4 4 4 4 4 4 5 5 5 5 5 5 5 5 5 5 6 6 6 6 6 6 6 6 6 6 6 6
5 5 4 4 4 4 4 4 3 3 3 3 2 2 2 2 2 2 2 2 2 2 2 2 2 2 2 2 2 2 1 1 1 2 2 2 2 2 2 1 1 1 1 1 1 1 1 2 2 2 2 2 2 2 3 3 3 3 3 4 4 4 4 4 4 4 4 5 5 5 5 5 5 5 5 5 5 6 6 6 6 6 6 6 6 6
5 5 5 4 4 4 4 3 3 3 3 2 2 2 2 2 2 2 2 2 2 2 2 2 2 2 2 2 2 1 1 1 1 1 2 2 2 2 2 2 1 1 1 1 1 1 1 1 1 1 2 2 2 2 2 2 2 2 3 3 3 3 3 4 4 4 4 4 4 4 4 4 4 4 4 5 5 5 5 5 5 5 5 5 5 6
5 5 5 4 4 3 3 3 3 3 2 2 2 2 2 2 2 2 2 2 2 2 2 2 2 2 2 2 2 1 1 1 1 1 1 2 2 2 2 1 1 1 1 1 1 1 1 1 1 1 1 1 1 2 2 2 2 2 2 2 2 3 3 3 3 3 3 4 4 4 4 4 4 5 5 5 5 5 5 5 4 4 4 4 5 5
4 4 4 4 3 3 3 3 3 2 2 2 2 2 2 2 2 2 2 2 2 2 1 1 1 1 1 1 1 1 1 1 1 1 1 1 1 1 1 1 1 1 1 1 1 1 1 1 1 1 1 1 1 1 1 1 2 2 2 2 2 2 2 2 3 3 3 3 3 3 4 4 4 4 4 4 4 4 4 4 4 4 4 4 4 5
4 4 3 3 3 3 3 3 2 2 2 2 2 2 1 1 1 1 1 1 1 1 1 1 1 1 1 1 1 1 1 1 0 0 1 1 1 1 1 1 1 1 1 1 1 1 1 1 1 1 1 1 1 1 1 1 1 1 2 2 2 2 2 2 2 3 3 3 3 3 3 3 3 3 3 3 4 4 4 4 4 4 4 4 5 5
3 3 3 3 3 2 2 2 2 2 2 2 2 1 1 1 1 1 1 1 1 1 1 1 1 1 1 1 1 1 1 1 0 0 0 1 1 1 1 1 1 0 0 0 0 0 1 1 1 1 1 1 1 1 1 1 1 1 1 1 1 1 2 2 2 2 2 2 2 3 3 3 3 3 3 3 3 3 3 3 4 4 4 4 4 5
3 2 2 2 2 2 2 2 2 2 2 1 1 1 1 1 1 1 1 1 1 1 1 1 1 1 1 1 1 1 1 1 1 1 1 1 1 1 1 1 0 0 0 0 0 0 0 0 0 1 1 1 1 1 1 1 1 1 1 1 1 1 1 1 2 2 2 2 2 2 2 2 2 2 2 2 3 3 3 3 3 3 3 4 4 4
2 2 2 2 2 2 2 2 2 2 1 1 1 1 1 1 1 1 1 1 1 1 1 1 1 1 1 1 1 1 1 1 1 1 1 1 1 1 0 0 0 0 -0 -0 -0 -0 -0 0 0 0 0 0 0 0 0 0 0 0 0 0 0 1 1 1 1 1 2 2 2 2 2 2 2 2 2 2 2 2 2 2 3 3 3 3 3 4
2 2 2 2 2 2 2 2 2 1 1 1 1 1 1 1 1 1 1 1 1 1 1 1 1 1 1 1 1 1 1 1 1 0 0 0 0 0 0 -0 -0 -0 -0 -0 -0 -0 -0 -0 -0 -0 -0 -0 0 0 0 0 0 0 0 0 0 0 0 1 1 1 1 1 1 1 2 2 2 2 2 2 2 2 2 2 2 2 3 3 3 3
1 1 2 2 2 2 2 2 2 1 1 1 1 1 1 1 1 1 1 1 1 1 1 1 1 1 1 1 1 1 1 1 1 1 1 1 0 0 0 0 -0 -0 -0 -0 -0 -0 -0 -0 -0 -0 -0 -0 -0 -0 -0 -0 -0 -0 -0 -0 0 0 0 0 1 1 1 1 1 1 1 1 1 1 1 2 2 2 2 2 2 2 2 2 3 3
1 1 1 1 1 1 1 2 1 1 1 1 1 1 1 1 1 1 0 0 0 1 1 1 1 1 0 1 1 1 1 1 1 1 1 1 0 0 0 0 0 0 0 0 0 -0 -0 -0 -0 -0 -0 -0 -0 -0 -0 -0 -0 -0 -0 -0 -0 0 0 0 0 0 0 1 1 1 1 1 1 1 1 1 1 2 2 2 2 2 2 2 2 2
1 1 1 1 1 1 1 1 1 1 1 1 1 1 1 1 0 0 0 0 0 0 0 0 0 0 0 1 1 1 1 1 1 1 1 1 1 0 0 0 0 0 0 0 0 0 0 0 -0 -0 -0 -0 -0 -0 -0 -0 -0 -0 -0 -0 -0 -0 -0 -0 0 0 0 0 1 1 1 1 1 1 1 1 1 1 1 1 2 2 2 2 2 2
1 1 1 1 1 1 1 1 1 1 1 1 1 1 1 0 -0 -0 -0 -0 -0 -0 -0 0 0 0 0 1 1 1 1 1 1 1 1 0 0 0 0 0 0 0 0 0 0 0 0 0 0 -0 -0 -0 -0 -0 -0 -0 -0 -0 -0 -0 -0 -0 -0 -0 -0 0 0 0 0 0 0 0 1 1 1 1 1 1 1 1 1 1 1 2 2 2
1 1 1 1 1 1 1 1 1 1 1 1 1 0 0 -0 -0 -0 -0 -0 -0 -0 -0 -0 -0 -0 0 0 1 1 1 0 0 0 0 0 0 0 0 0 0 0 0 0 0 0 0 0 0 0 0 0 0 -0 -0 -0 -0 -0 -0 -0 -0 -0 -0 -0 -0 -0 -0 0 0 0 0 0 0 0 1 1 1 1 1 1 1 1 1 1 1 2
0 1 1 1 1 1 1 1 1 1 1 0 0 -0 -0 -1 -1 -1 -1 -1 -1 -1 -1 -1 -0 -0 0 0 0 0 0 0 0 0 0 0 -0 -0 -0 -0 -0 -0 -0 -0 0 0 0 0 0 0 0 0 0 -0 -0 -0 -0 -0 -0 -0 -0 -0 -0 -0 -0 -0 -0 -0 -0 0 0 0 0 0 1 1 1 1 1 1 1 1 1 1 1 1
0 0 0 1 1 1 1 0 0 0 0 -0 -0 -1 -1 -1 -1 -1 -1 -1 -1 -1 -1 -1 -1 -0 -0 0 0 0 0 0 -0 -0 -0 -0 -0 -0 -0 -0 -0 -0 -0 -0 0 0 0 0 0 0 0 0 0 -0 -0 -0 -1 -1 -1 -1 -1 -1 -0 -0 -0 -0 -0 -0 -0 -0 -0 0 0 0 0 0 0 1 1 1 1 1 1 1 1 1
-0 -0 0 0 0 0 0 -0 -0 -0 -0 -1 -1 -1 -2 -2 -2 -2 -2 -2 -1 -1 -1 -1 -1 -1 -0 0 0 0 -0 -0 -0 -0 -0 -0 -0 -0 -0 -0 -0 -0 -0 0 0 0 0 0 0 0 0 -0 -0 -0 -0 -0 -1 -1 -1 -1 -1 -1 -1 -1 -1 -0 -0 -0 -0 -0 -0 -0 0 0 0 0 0 0 0 1 1 1 1 1 1 1
-1 -0 -0 -0 -0 -0 -0 -1 -1 -1 -1 -1 -2 -2 -2 -2 -2 -2 -2 -2 -2 -1 -1 -1 -1 -1 -1 -0 -0 -0 -0 -1 -1 -1 -1 -1 -0 -0 -0 -0 -0 -0 0 0 0 0 0 0 0 -0 -0 -0 -0 -0 -0 -1 -1 -1 -1 -1 -1 -1 -1 -1 -1 -1 -0 -0 -0 -0 -0 -0 -0 0 0 0 0 0 0 0 0 1 1 1 1 1
-1 -1 -1 -1 -1 -1 -1 -1 -1 -2 -2 -2 -3 -3 -3 -3 -3 -2 -2 -2 -2 -2 -2 -2 -1 -1 -1 -1 -1 -1 -1 -1 -1 -1 -1 -1 -0 -0 -0 -0 -0 0 0 0 0 0 0 0 -0 -0 -0 -0 -0 -0 -0 -1 -1 -1 -1 -1 -1 -1 -1 -1 -1 -1 -1 -1 -0 -0 -0 -0 -0 -0 0 0 0 0 0 0 0 1 1 1 1 1
-1 -1 -1 -1 -1 -2 -2 -2 -2 -2 -3 -3 -3 -3 -3 -3 -3 -3 -2 -2 -2 -2 -2 -2 -2 -2 -1 -1 -1 -1 -2 -2 -2 -1 -1 -1 -1 -1 -0 -0 -0 -0 0 0 0 0 -0 -0 -0 -0 -0 -0 -0 -0 -1 -1 -1 -1 -1 -1 -1 -1 -1 -1 -1 -1 -1 -1 -1 -0 -0 -0 -0 -0 -0 0 0 0 0 0 0 0 1 1 1 1
-2 -2 -2 -2 -2 -3 -3 -3 -3 -3 -3 -4 -4 -4 -3 -3 -3 -3 -3 -3 -3 -3 -3 -3 -2 -2 -2 -2 -2 -2 -2 -2 -2 -1 -1 -1 -1 -1 -0 -0 -0 -0 -0 -0 -0 -0 -0 -0 -0 -0 -1 -1 -1 -1 -1 -1 -1 -1 -1 -1 -1 -1 -1 -1 -1 -1 -1 -1 -1 -1 -0 -0 -0 -0 -0 -0 0 0 0 0 0 0 1 1 1 1
-2 -3 -3 -3 -3 -3 -3 -3 -4 -4 -4 -4 -4 -4 -4 -4 -4 -4 -4 -4 -3 -3 -3 -3 -3 -3 -3 -3 -3 -2 -2 -2 -2 -2 -1 -1 -1 -1 -1 -1 -1 -1 -1 -1 -1 -1 -1 -1 -1 -1 -1 -1 -1 -1 -1 -1 -1 -1 -1 -1 -1 -1 -1 -1 -1 -1 -1 -1 -1 -1 -1 -0 -0 -0 -0 -0 -0 0 0 0 0 0 0 0 0 1
-3 -3 -3 -4 -4 -4 -4 -4 -4 -4 -4 -4 -4 -4 -4 -4 -4 -4 -4 -4 -4 -4 -4 -4 -4 -3 -3 -3 -2 -2 -2 -2 -1 -1 -1 -1 -1 -1 -1 -1 -1 -1 -1 -1 -1 -1 -1 -1 -1 -1 -1 -1 -1 -1 -1 -1 -1 -1 -1 -1 -1 -1 -1 -1 -1 -1 -1 -1 -1 -1 -1 -1 -0 -0 -0 -0 -0 -0 -0 -0 -0 -0 -0 -0 0 0
-4 -4 -4 -4 -4 -4 -4 -4 -4 -4 -4 -4 -4 -4 -4 -4 -4 -4 -4 -4 -4 -4 -4 -4 -3 -3 -3 -2 -2 -2 -2 -2 -2 -2 -2 -2 -2 -2 -2 -2 -2 -2 -2 -2 -2 -2 -2 -2 -2 -2 -2 -2 -2 -2 -2 -2 -2 -2 -1 -1 -1 -1 -1 -1 -1 -1 -1 -1 -1 -1 -1 -1 -1 -1 -1 -1 -1 -1 -1 -1 -0 -0 -0 -0 -0 -0
-4 -4 -5 -5 -5 -5 -5 -5 -5 -5 -5 -5 -5 -5 -5 -5 -5 -5 -5 -4 -4 -4 -4 -3 -3 -3 -3 -2 -2 -2 -2 -2 -2 -2 -2 -2 -2 -2 -2 -2 -2 -2 -2 -2 -2 -2 -2 -2 -2 -2 -2 -2 -2 -2 -2 -2 -2 -2 -1 -1 -1 -1 -1 -1 -1 -1 -1 -1 -1 -1 -1 -1 -1 -1 -1 -1 -1 -1 -1 -1 -1 -1 -1 -1 -0 -0
-5 -5 -5 -5 -5 -5 -5 -5 -5 -5 -5 -5 -5 -5 -5 -5 -5 -5 -5 -4 -4 -4 -4 -4 -3 -3 -3 -3 -3 -2 -2 -2 -2 -2 -2 -2 -2 -2 -2 -2 -2 -2 -2 -2 -2 -2 -2 -2 -2 -2 -2 -2 -2 -2 -2 -1 -1 -1 -1 -1 -2 -2 -2 -2 -2 -2 -2 -2 -2 -2 -2 -2 -1 -1 -1 -1 -1 -1 -1 -1 -1 -1 -1 -1 -1 -1
-5 -5 -5 -5 -5 -6 -6 -6 -6 -6 -6 -6 -6 -6 -5 -5 -5 -5 -5 -4 -4 -4 -4 -4 -4 -4 -3 -3 -3 -3 -3 -3 -3 -3 -3 -3 -3 -3 -3 -3 -3 -3 -3 -3 -3 -3 -3 -3 -3 -2 -2 -2 -2 -1 -1 -1 -1 -2 -2 -2 -2 -2 -2 -2 -2 -2 -2 -2 -2 -2 -2 -2 -2 -2 -2 -2 -2 -2 -2 -1 -1 -1 -1 -1 -1 -1
-5 -5 -5 -5 -6 -6 -6 -6 -6 -6 -6 -6 -6 -6 -6 -5 -5 -5 -5 -5 -5 -5 -5 -4 -4 -4 -4 -4 -4 -4 -4 -3 -3 -3 -3 -3 -3 -3 -3 -3 -3 -3 -3 -3 -3 -3 -3 -3 -2 -2 -2 -2 -2 -2 -2 -2 -2 -2 -2 -2 -2 -2 -2 -2 -2 -2 -2 -2 -2 -2 -2 -2 -2 -2 -2 -2 -2 -2 -2 -2 -1 -1 -1 -1 -1 -1
-5 -5 -5 -5 -5 -6 -6 -6 -6 -6 -6 -6 -6 -6 -6 -6 -5 -5 -5 -5 -5 -5 -5 -5 -4 -4 -4 -4 -4 -4 -3 -3 -3 -3 -3 -4 -4 -4 -4 -4 -4 -4 -4 -4 -4 -3 -3 -3 -2 -2 -2 -2 -2 -2 -2 -2 -2 -2 -2 -2 -2 -2 -2 -2 -2 -2 -2 -2 -2 -2 -2 -2 -2 -2 -2 -2 -2 -2 -2 -2 -2 -1 -1 -1 -1 -1
-5 -5 -5 -5 -5 -5 -5 -6 -6 -6 -6 -6 -6 -6 -6 -6 -5 -5 -5 -5 -5 -5 -5 -5 -5 -5 -5 -5 -4 -4 -3 -3 -3 -4 -4 -4 -4 -4 -4 -4 -4 -4 -4 -4 -4 -4 -3 -3 -3 -3 -3 -3 -3 -3 -3 -3 -3 -3 -3 -2 -2 -2 -2 -2 -2 -2 -2 -2 -2 -2 -2 -2 -2 -2 -2 -2 -2 -2 -2 -2 -2 -2 -1 -1 -1 -1
-5 -5 -5 -5 -5 -5 -5 -5 -5 -5 -5 -5 -5 -5 -6 -6 -6 -6 -6 -6 -6 -6 -6 -6 -5 -5 -5 -5 -5 -4 -4 -4 -4 -4 -5 -5 -5 -5 -5 -5 -5 -5 -5 -5 -5 -5 -4 -3 -3 -3 -3 -3 -3 -3 -3 -3 -3 -3 -3 -3 -2 -2 -2 -2 -2 -2 -2 -2 -2 -2 -2 -2 -2 -2 -2 -2 -2 -2 -2 -2 -2 -2 -2 -1 -1 -1
-6 -5 -5 -5 -5 -5 -5 -5 -5 -5 -5 -5 -5 -5 -5 -6 -6 -6 -6 -6 -6 -6 -6 -6 -6 -6 -6 -6 -5 -5 -5 -5 -5 -5 -5 -5 -5 -5 -5 -5 -5 -5 -5 -5 -5 -5 -5 -4 -4 -4 -4 -4 -4 -4 -4 -3 -3 -3 -3 -3 -3 -3 -2 -2 -2 -2 -2 -2 -2 -2 -2 -2 -2 -2 -2 -2 -2 -2 -2 -2 -2 -2 -2 -2 -2 -1
-6 -5 -5 -5 -5 -5 -5 -5 -5 -5 -5 -5 -5 -5 -5 -5 -6 -6 -6 -6 -6 -6 -6 -6 -6 -6 -6 -6 -6 -6 -6 -5 -5 -5 -5 -6 -6 -6 -6 -6 -6 -6 -6 -5 -5 -5 -5 -5 -5 -5 -4 -4 -4 -4 -4 -3 -3 -3 -3 -3 -3 -3 -3 -3 -2 -2 -2 -2 -2 -2 -2 -2 -2 -2 -2 -2 -2 -2 -2 -2 -2 -2 -2 -2 -2 -2
-6 -5 -5 -5 -5 -5 -5 -5 -5 -5 -5 -5 -5 -5 -5 -5 -5 -6 -6 -6 -6 -6 -6 -6 -6 -6 -6 -6 -6 -6 -6 -6 -6 -6 -6 -6 -6 -6 -6 -6 -6 -6 -6 -6 -6 -5 -5 -5 -5 -5 -5 -4 -4 -4 -4 -4 -3 -3 -3 -3 -3 -3 -3 -3 -3 -3 -3 -3 -3 -2 -2 -2 -2 -2 -2 -2 -2 -2 -2 -2 -2 -2 -2 -2 -2 -2
-6 -5 -5 -5 -5 -5 -5 -5 -5 -5 -5 -5 -5 -5 -5 -5 -6 -6 -6 -6 -6 -6 -6 -7 -7 -7 -7 -7 -7 -6 -6 -6 -6 -6 -6 -6 -6 -7 -6 -6 -6 -6 -6 -6 -6 -6 -5 -5 -5 -5 -5 -4 -4 -4 -4 -4 -3 -3 -3 -3 -3 -3 -3 -3 -3 -3 -3 -3 -3 -3 -3 -3 -3 -3 -3 -2 -2 -2 -2 -2 -2 -2 -2 -2 -2 -2
-5 -5 -5 -5 -5 -5 -5 -5 -5 -5 -5 -5 -5 -5 -6 -6 -6 -6 -6 -6 -7 -7 -7 -7 -7 -7 -7 -7 -7 -7 -7 -7 -7 -7 -7 -7 -7 -7 -7 -7 -6 -6 -6 -6 -6 -6 -6 -5 -5 -5 -5 -4 -4 -4 -4 -4 -4 -3 -3 -3 -3 -3 -3 -3 -3 -3 -3 -3 -3 -3 -3 -3 -3 -3 -3 -3 -3 -3 -3 -2 -2 -2 -2 -2 -2 -2
-5 -5 -5 -5 -5 -5 -5 -5 -5 -5 -5 -5 -5 -6 -6 -6 -6 -6 -6 -6 -7 -7 -6 -6 -6 -6 -6 -6 -7 -7 -7 -7 -7 -7 -7 -7 -7 -7 -7 -7 -7 -7 -6 -6 -6 -6 -6 -6 -5 -5 -5 -5 -4 -4 -4 -4 -4 -4 -4 -4 -4 -4 -4 -3 -3 -3 -3 -3 -3 -3 -3 -3 -3 -3 -3 -3 -3 -3 -2 -2 -2 -2 -2 -2 -2 -2
-5 -5 -5 -5 -5 -5 -5 -5 -5 -5 -6 -6 -6 -6 -6 -6 -6 -6 -6 -6 -6 -6 -6 -6 -6 -6 -6 -6 -6 -7 -7 -7 -7 -7 -7 -7 -7 -7 -7 -7 -7 -7 -7 -7 -7 -6 -6 -6 -6 -5 -5 -5 -5 -4 -4 -4 -4 -4 -4 -4 -4 -4 -4 -4 -3 -3 -3 -3 -3 -3 -3 -3 -3 -3 -3 -3 -3 -3 -3 -3 -3 -3 -3 -3 -3 -3
-5 -5 -5 -5 -5 -5 -5 -6 -6 -6 -6 -6 -6 -6 -6 -6 -6 -6 -6 -6 -6 -6 -6 -6 -6 -6 -6 -6 -6 -6 -6 -6 -6 -6 -7 -7 -7 -7 -7 -7 -7 -7 -7 -7 -6 -6 -6 -6 -6 -6 -5 -5 -5 -5 -5 -5 -5 -4 -4 -4 -4 -4 -4 -3 -3 -3 -3 -3 -3 -3 -3 -3 -3 -3 -3 -3 -3 -3 -3 -3 -3 -3 -3 -3 -3 -3
-6 -6 -6 -6 -6 -6 -6 -6 -6 -6 -6 -6 -6 -6 -6 -6 -6 -6 -6 -6 -6 -6 -6 -6 -6 -6 -6 -6 -6 -6 -6 -6 -6 -6 -6 -6 -6 -6 -7 -7 -7 -7 -7 -6 -6 -6 -6 -6 -6 -6 -6 -5 -5 -5 -5 -5 -5 -5 -4 -4 -4 -4 -4 -4 -4 -4 -4 -4 -4 -4 -3 -3 -3 -3 -3 -3 -3 -3 -3 -3 -3 -3 -3 -3 -3 -3
-6 -6 -6 -6 -6 -6 -6 -6 -6 -6 -6 -6 -6 -6 -6 -6 -6 -6 -6 -6 -6 -6 -6 -6 -6 -6 -6 -6 -6 -6 -6 -6 -6 -6 -6 -6 -6 -6 -6 -6 -7 -7 -7 -6 -6 -6 -6 -6 -6 -6 -6 -6 -5 -5 -5 -5 -5 -5 -5 -4 -4 -4 -4 -4 -4 -4 -4 -4 -3 -3 -3 -3 -3 -3 -3 -3 -3 -3 -3 -3 -3 -3 -3 -3 -3 -3
-6 -6 -6 -6 -6 -6 -6 -6 -6 -6 -6 -6 -6 -6 -6 -6 -6 -6 -6 -6 -6 -6 -6 -6 -6 -6 -6 -6 -6 -5 -5 -5 -5 -5 -5 -5 -6 -6 -6 -6 -6 -6 -6 -6 -6 -6 -6 -6 -6 -6 -6 -6 -6 -5 -5 -5 -5 -5 -5 -5 -5 -4 -4 -4 -4 -4 -4 -4 -4 -4 -4 -4 -4 -3 -3 -3 -3 -3 -3 -3 -3 -3 -3 -3 -3 -3
-6 -6 -6 -6 -6 -6 -6 -6 -6 -6 -6 -6 -6 -6 -6 -6 -6 -6 -6 -6 -6 -6 -6 -6 -6 -6 -6 -5 -5 -5 -5 -5 -5 -5 -5 -5 -5 -5 -6 -6 -6 -6 -6 -6 -6 -6 -6 -6 -6 -6 -6 -6 -6 -6 -5 -5 -5 -5 -5 -5 -5 -5 -4 -4 -4 -4 -4 -4 -4 -4 -4 -4 -4 -4 -4 -4 -4 -4 -4 -4 -4 -4 -4 -4 -4 -3
-6 -6 -6 -6 -6 -6 -6 -6 -6 -6 -6 -6 -6 -6 -6 -6 -6 -6 -6 -6 -6 -6 -6 -6 -6 -6 -5 -5 -5 -5 -5 -5 -5 -5 -5 -5 -5 -5 -5 -5 -6 -6 -6 -6 -6 -6 -6 -6 -6 -6 -6 -6 -6 -6 -5 -5 -5 -5 -5 -5 -5 -5 -5 -4 -4 -4 -4 -4 -4 -4 -4 -4 -4 -4 -4 -4 -4 -4 -4 -4 -4 -4 -4 -4 -4 -4
-6 -6 -6 -6 -6 -6 -6 -6 -6 -6 -6 -6 -6 -6 -6 -6 -6 -6 -6 -6 -6 -6 -6 -6 -6 -6 -5 -5 -5 -5 -5 -5 -5 -5 -5 -5 -5 -5 -5 -5 -5 -5 -6 -6 -6 -6 -6 -6 -6 -6 -6 -6 -6 -6 -6 -6 -5 -5 -5 -5 -5 -5 -5 -4 -4 -4 -4 -4 -4 -4 -4 -4 -4 -4 -4 -4 -4 -4 -4 -4 -4 -4 -4 -4 -4 -4
-6 -6 -6 -6 -6 -6 -6 -6 -6 -6 -6 -6 -6 -6 -6 -6 -6 -6 -6 -6 -6 -6 -5 -5 -5 -5 -5 -5 -5 -5 -5 -5 -5 -5 -5 -5 -5 -5 -5 -5 -5 -5 -5 -6 -6 -6 -6 -6 -6 -6 -6 -6 -6 -5 -5 -5 -5 -5 -5 -5 -5 -5 -5 -4 -4 -4 -4 -4 -4 -4 -4 -4 -4 -4 -4 -4 -4 -4 -4 -4 -4 -4 -4 -3 -3 -3
-6 -6 -6 -6 -6 -6 -6 -6 -6 -6 -6 -6 -6 -6 -6 -6 -6 -6 -6 -5 -5 -5 -5 -5 -5 -5 -5 -5 -5 -5 -5 -5 -5 -5 -5 -5 -5 -5 -5 -5 -5 -5 -5 -5 -5 -6 -6 -6 -6 -6 -6 -6 -6 -6 -5 -5 -5 -5 -5 -5 -5 -5 -5 -4 -4 -4 -4 -4 -4 -4 -4 -4 -4 -4 -4 -4 -4 -4 -4 -4 -4 -3 -3 -3 -3 -3
-6 -6 -6 -6 -6 -6 -6 -6 -6 -6 -6 -6 -6 -5 -5 -5 -5 -5 -6 -6 -6 -6 -6 -5 -5 -5 -5 -5 -5 -5 -5 -5 -5 -5 -5 -5 -5 -5 -5 -5 -5 -5 -5 -5 -5 -5 -5 -5 -5 -6 -6 -6 -6 -6 -5 -5 -5 -5 -5 -5 -5 -5 -5 -4 -4 -4 -4 -4 -4 -4 -4 -4 -4 -4 -4 -4 -4 -4 -3 -3 -3 -3 -3 -3 -3 -3
-6 -6 -6 -6 -6 -6 -6 -6 -6 -6 -6 -6 -6 -6 -5 -5 -5 -6 -6 -6 -6 -6 -6 -6 -5 -5 -5 -5 -5 -5 -5 -5 -5 -5 -5 -5 -5 -5 -5 -5 -5 -5 -5 -5 -5 -5 -5 -5 -5 -5 -5 -5 -5 -5 -5 -5 -5 -5 -5 -5 -5 -4 -4 -4 -4 -4 -4 -4 -4 -4 -4 -4 -4 -4 -4 -4 -4 -4 -3 -3 -3 -3 -3 -3 -3 -3
-6 -6 -6 -6 -6 -6 -6 -6 -6 -6 -6 -6 -6 -6 -6 -6 -6 -6 -6 -6 -6 -6 -6 -5 -5 -5 -5 -5 -5 -5 -5 -5 -5 -5 -5 -5 -5 -5 -5 -5 -5 -5 -5 -5 -4 -4 -4 -4 -4 -4 -3 -4 -4 -4 -5 -5 -5 -5 -4 -4 -4 -4 -4 -4 -4 -4 -4 -4 -4 -4 -4 -4 -4 -4 -4 -4 -4 -3 -3 -3 -3 -3 -3 -3 -3 -3
Height
790 790 789 788 788 787 786 785 785 784 783 782 781 781 780 779 778 777 776 776 775 774 773 772 771 770 769 767 766 765 764 763 762 761 760 759 758 756 756 754 753 752 751 751 750 749 749 748 747 746 746 745 745 744 744 743 743 742 742 741 741 740 740 739 739 738 738 737 737 736 736 736 735 735 735 734 734 734 734 734 734 734 734 734 734 734
790 789 788 788 787 786 785 785 784 784 783 782 781 780 779 778 777 776 776 775 774 773 772 771 770 769 768 766 766 764 763 762 761 760 759 757 756 755 754 753 752 751 750 749 749 748 747 746 746 745 744 744 743 743 742 742 741 741 740 740 739 739 738 738 738 737 736 736 736 735 735 734 733 733 733 732 732 732 732 732 732 732 731 731 731 731
789 789 788 787 787 786 785 784 784 783 782 781 781 780 779 778 777 776 775 774 773 772 771 770 769 767 766 766 764 763 762 761 760 758 757 756 755 754 753 752 751 750 749 748 747 746 746 745 744 743 743 742 742 741 741 740 740 739 739 738 738 737 737 737 736 736 735 735 734 734 733 732 732 731 731 731 731 731 730 730 730 730 730 729 729 729
789 788 787 787 786 786 785 784 783 783 782 781 780 779 779 777 776 775 774 773 772 771 770 769 768 766 765 764 763 762 761 759 758 757 756 755 754 753 752 751 750 749 748 747 746 745 744 744 743 742 741 741 740 740 739 739 738 737 737 737 736 736 736 735 735 734 734 733 733 732 731 731 730 730 729 729 729 729 729 728 728 728 728 727 727 727
789 788 787 787 786 785 784 784 783 782 781 781 780 779 778 777 776 774 773 772 771 770 769 768 767 766 764 763 762 761 759 758 757 756 755 754 752 751 751 750 749 748 747 746 745 744 743 742 742 741 740 739 738 738 737 736 736 736 735 735 735 734 734 733 733 732 732 731 731 730 729 729 728 728 727 727 727 727 727 727 727 726 726 726 726 726
789 788 787 787 786 785 784 783 782 781 781 780 779 778 777 776 775 774 772 771 771 769 768 767 766 765 764 762 761 760 758 757 756 755 754 752 751 751 750 749 748 747 746 745 744 743 742 741 741 740 739 738 737 736 736 735 734 734 733 733 732 732 731 731 731 731 730 730 729 729 728 727 727 726 726 726 726 726 726 726 725 725 725 725 725 724
789 788 787 786 786 785 784 783 782 781 780 779 778 777 776 775 774 773 772 771 770 769 767 766 765 764 763 761 760 759 758 756 755 754 753 752 751 750 749 748 747 746 745 744 743 742 741 741 739 739 738 737 736 735 734 733 733 732 731 731 731 730 730 729 729 729 728 728 727 727 726 726 726 725 725 724 724 724 724 724 724 724 724 723 723 723
788 788 787 786 785 784 783 782 781 781 780 779 778 776 775 774 773 772 771 770 769 768 767 765 764 763 762 761 760 758 757 756 754 753 752 751 750 749 748 747 746 745 744 743 742 741 740 739 738 737 736 735 734 734 733 732 731 731 730 729 729 728 728 727 727 726 726 726 726 725 725 725 724 724 723 723 723 722 722 722 722 722 722 722 721 721
789 787 786 786 785 784 782 781 781 780 780 779 777 776 775 773 772 771 770 769 768 767 766 765 763 762 761 760 759 758 756 755 754 752 751 750 749 748 747 746 745 744 742 741 740 739 738 737 736 736 735 734 733 732 731 731 730 729 729 728 727 727 726 726 725 725 724 724 724 723 723 723 722 722 721 721 721 721 721 721 720 720 720 720 720 719
788 787 786 785 784 784 782 781 780 779 779 778 777 776 775 773 771 770 769 768 768 767 766 765 763 761 760 759 758 757 755 754 753 752 751 749 748 747 746 745 743 742 741 740 739 738 737 736 735 734 733 732 731 731 730 729 728 728 727 726 726 726 725 724 724 723 723 722 722 721 721 721 720 720 720 719 719 719 719 718 718 718 718 718 717 717
788 787 786 785 784 783 782 781 779 779 778 777 776 775 774 773 772 770 769 767 767 766 765 764 763 761 759 758 757 756 755 753 751 751 750 748 747 746 745 744 742 741 740 739 738 736 736 735 733 732 732 731 730 729 728 728 727 726 726 726 725 724 724 723 723 722 722 721 721 720 720 719 719 718 718 717 717 717 717 716 716 716 716 716 715 715
787 786 785 784 783 782 781 780 779 778 777 776 775 774 773 773 772 771 770 768 766 765 764 763 762 761 760 758 756 755 754 752 751 750 748 747 746 745 744 742 741 740 739 737 736 736 734 733 732 731 731 729 729 728 727 727 726 726 725 724 724 723 722 722 721 721 721 720 720 719 718 718 717 717 716 716 716 715 715 715 714 714 714 713 713 713
787 786 785 784 783 781 780 779 778 777 777 776 775 774 773 773 772 772 771 769 767 766 764 762 761 760 759 757 756 754 753 751 750 749 748 746 746 744 743 741 740 739 738 736 735 734 733 732 731 730 729 728 727 727 726 726 725 725 724 723 723 722 721 721 721 720 719 719 718 717 717 716 716 715 715 714 714 713 713 713 712 712 712 711 711 711
786 785 784 783 782 781 780 779 778 777 776 776 775 775 774 773 772 771 770 768 767 766 764 762 761 759 758 756 755 754 752 751 749 748 747 746 745 744 742 741 739 738 737 736 734 733 732 731 730 729 728 727 726 726 725 725 724 724 723 722 722 721 721 720 719 719 718 717 717 716 715 715 714 713 713 712 712 711 711 711 710 710 710 709 709 708
786 785 784 783 781 781 780 779 778 777 776 776 776 775 774 773 772 771 770 768 766 765 764 762 760 758 757 756 755 754 752 751 749 747 746 745 744 743 742 740 738 737 736 734 733 732 731 730 729 728 727 726 726 725 724 724 723 723 722 721 721 720 719 719 718 717 716 716 715 714 714 713 712 712 711 711 710 709 709 708 708 708 707 707 706 706
786 785 784 782 781 781 780 779 778 777 776 776 776 775 774 773 772 771 770 768 766 765 763 761 759 757 756 755 754 753 752 751 749 747 745 743 742 742 741 739 737 736 735 733 732 731 730 729 728 727 726 725 724 724 723 723 722 721 721 720 719 719 718 717 716 716 715 714 713 713 712 711 711 710 709 709 708 707 707 706 706 706 705 705 704 704
786 785 784 782 781 780 780 779 778 778 777 776 775 775 774 773 772 771 770 768 766 765 763 761 760 757 754 753 753 753 752 750 748 746 745 742 741 741 741 739 736 734 733 732 731 730 729 728 727 726 725 724 723 723 722 721 721 720 719 719 718 717 716 716 715 714 713 712 712 711 710 710 709 708 708 707 706 706 705 705 704 703 703 702 702 701
786 785 784 782 781 780 780 779 778 777 777 776 775 775 774 773 772 771 770 769 767 765 763 762 760 758 756 753 751 751 752 750 748 746 744 741 740 739 739 738 736 734 732 731 730 729 728 726 726 725 724 723 722 721 721 720 719 719 718 717 716 716 715 714 713 712 711 711 710 709 709 708 707 706 706 705 704 704 703 702 702 701 701 701 700 700
785 784 783 782 781 780 780 779 778 777 777 776 775 775 774 773 772 771 770 768 767 766 764 762 760 758 756 753 751 751 751 750 748 746 743 741 739 738 738 736 735 733 731 730 729 728 727 726 724 723 722 721 721 720 719 718 718 717 716 715 715 714 713 712 711 711 710 709 708 707 707 706 705 705 704 703 702 702 701 701 700 699 699 698 698 697
785 784 783 782 781 780 779 779 778 778 777 776 776 775 773 772 771 770 769 768 766 765 764 762 760 758 756 754 752 751 751 750 748 746 743 740 738 737 736 735 734 732 730 729 728 727 726 724 723 722 721 720 719 719 718 717 716 715 715 714 713 712 711 710 709 709 708 707 706 706 705 704 703 703 702 701 701 700 699 699 698 698 697 696 696 695
784 783 782 782 781 780 779 779 778 778 777 776 775 774 773 771 771 769 768 767 766 765 763 762 760 758 756 754 752 751 751 750 748 745 742 740 737 736 736 735 733 731 729 728 727 726 725 724 722 721 720 719 718 717 716 716 715 714 713 712 711 710 709 708 708 707 706 705 704 704 703 702 701 701 700 700 699 698 697 697 696 696 695 694 694 693
784 783 782 782 781 781 779 778 778 777 776 776 775 774 772 771 770 769 768 767 766 764 763 761 760 758 756 754 752 751 751 750 748 746 743 740 737 735 735 734 732 731 729 727 726 725 724 723 721 720 719 718 717 716 715 714 713 712 711 710 709 708 707 706 706 705 704 703 702 702 701 700 700 699 698 698 697 696 696 695 694 694 693 692 692 691
783 782 781 781 781 780 779 778 777 776 776 775 774 773 772 771 770 768 767 766 765 763 762 760 759 757 756 754 752 751 750 749 747 746 743 740 736 734 734 734 732 730 728 727 725 724 723 722 720 719 717 716 716 715 713 712 711 710 709 708 707 706 706 705 704 703 702 701 701 700 699 698 698 697 696 696 695 695 694 693 692 691 691 690 690 689
782 781 781 780 780 779 778 777 776 775 775 774 773 772 771 770 769 768 766 765 764 763 761 760 758 756 754 753 751 750 749 748 747 745 743 740 737 735 734 733 731 730 728 726 725 723 722 721 719 718 716 715 714 713 712 711 710 709 708 707 706 705 704 703 702 701 701 700 699 698 697 696 696 695 694 694 693 692 692 691 690 690 689 688 687 687
781 781 780 779 778 778 777 776 775 774 773 772 771 771 770 769 768 766 766 764 763 762 761 759 757 755 753 751 750 749 748 747 746 745 743 740 737 735 734 733 731 729 727 725 724 723 721 719 718 716 715 713 712 711 710 709 708 707 706 705 704 703 702 701 700 700 699 698 697 696 695 695 694 693 692 692 691 690 690 689 688 687 687 686 685 685
781 780 779 778 777 776 775 774 773 772 772 771 770 769 768 767 766 765 764 763 762 761 760 758 756 754 752 751 749 748 747 746 746 745 743 740 737 735 733 733 731 729 726 724 723 722 720 718 716 715 713 712 710 709 708 707 706 705 704 703 702 701 701 700 699 698 697 696 695 694 693 693 692 691 690 690 689 688 687 687 686 685 685 684 683 682
779 778 777 776 775 774 773 772 771 770 770 769 769 768 767 766 766 764 763 762 761 761 760 758 755 753 752 751 749 747 746 746 745 744 742 740 737 735 733 732 731 729 726 723 722 721 719 717 715 713 712 710 709 708 707 706 705 704 703 702 701 700 699 698 697 696 695 694 693 692 691 690 690 689 688 687 686 686 685 684 684 683 682 682 681 680
777 776 775 774 773 772 771 770 769 769 768 767 767 767 766 766 765 764 762 761 761 760 759 757 756 753 751 750 748 747 746 745 744 742 741 740 737 734 732 731 731 729 726 723 721 719 718 716 714 712 711 709 708 706 705 705 704 702 701 700 699 698 697 696 695 694 693 692 691 690 689 688 687 686 686 685 684 683 682 682 681 681 680 680 679 677
775 774 773 772 771 771 770 769 768 767 767 766 766 766 765 765 764 763 762 761 760 759 758 757 756 754 751 750 748 746 745 744 743 741 741 739 737 734 733 731 730 729 727 723 719 717 716 714 713 711 709 708 707 706 704 703 702 701 700 698 697 696 695 694 693 692 691 690 689 688 687 686 685 684 683 682 681 681 680 680 679 679 678 677 676 675
774 773 772 771 770 769 769 768 767 766 766 765 765 765 764 764 763 762 761 761 760 759 757 756 755 753 751 750 747 745 743 742 742 741 740 739 736 734 733 731 730 729 728 725 720 715 712 711 711 710 709 707 706 705 704 702 701 700 698 697 695 694 693 692 691 690 689 688 686 686 685 684 683 682 681 680 679 679 678 678 677 677 676 675 674 673
773 772 771 770 769 768 768 767 766 766 765 764 764 763 763 763 762 761 761 760 759 758 757 756 754 753 752 750 748 745 742 741 741 741 740 739 736 734 733 731 730 729 728 727 723 718 712 708 707 708 708 707 705 704 703 701 700 699 697 695 694 692 691 690 689 688 686 686 685 683 682 681 681 680 679 678 677 676 676 676 676 675 674 673 672 671
772 771 770 769 768 768 767 766 766 765 764 764 763 762 762 761 761 760 760 759 758 757 756 755 754 752 751 751 749 746 743 741 740 741 740 739 736 734 733 731 730 728 727 727 726 722 716 710 706 706 706 706 705 703 701 701 699 698 696 694 692 691 689 688 687 686 685 683 682 681 680 679 678 677 676 676 675 674 674 673 673 673 672 671 670 669
771 771 770 769 768 767 766 766 765 764 764 763 762 762 761 761 760 759 759 758 757 756 756 754 753 751 750 749 747 745 743 741 740 740 740 738 736 734 732 731 730 728 726 726 725 722 719 713 709 706 705 704 703 702 701 699 698 696 695 693 691 689 688 687 686 684 683 681 680 679 678 677 676 675 674 673 672 672 671 671 671 671 670 669 668 667
771 770 769 768 768 767 766 765 765 764 763 762 762 761 761 760 759 758 757 757 756 755 755 753 752 751 749 748 746 744 741 740 740 739 739 738 736 734 732 731 729 727 726 724 722 720 718 715 711 708 705 702 701 701 700 698 696 695 694 692 690 688 687 686 684 683 681 680 679 677 676 675 673 672 671 671 670 669 669 668 668 668 668 667 666 665
771 770 769 768 767 766 766 765 764 763 762 762 761 760 760 759 758 757 756 756 755 754 753 752 751 750 748 747 745 742 740 739 739 739 738 737 736 734 731 730 729 727 726 723 721 719 716 713 711 709 706 701 699 698 698 697 695 694 692 691 689 687 686 685 683 681 680 678 677 675 674 673 671 670 669 668 667 666 666 666 665 665 665 664 664 663
771 770 769 768 767 766 765 764 763 762 762 761 760 760 759 758 757 756 755 754 753 752 751 750 749 748 747 746 744 741 739 738 737 737 737 736 735 733 731 729 728 727 725 723 721 719 716 713 710 708 706 702 699 696 695 694 694 692 691 689 688 686 685 683 682 681 679 677 675 673 672 671 670 668 667 666 665 664 664 663 662 662 661 661 661 661
770 769 768 767 766 766 765 764 763 762 761 760 759 759 758 757 756 755 754 753 751 751 749 748 747 746 745 743 742 740 738 737 736 736 736 735 734 732 731 728 726 726 725 722 720 718 716 712 709 706 704 702 699 696 693 692 691 690 689 687 686 685 683 682 681 679 677 676 673 672 670 669 668 666 665 664 663 662 661 660 660 659 659 658 658 657
770 769 768 767 766 766 764 763 762 761 761 760 759 757 756 756 755 753 752 751 750 749 748 746 745 744 742 741 740 738 737 736 735 734 733 733 732 731 729 727 725 724 723 722 720 717 715 712 709 706 702 700 698 696 693 692 690 688 686 685 684 683 681 680 679 677 676 674 672 670 669 667 666 665 663 662 661 660 659 658 657 656 656 656 655 654
770 769 768 767 766 765 764 763 762 761 760 759 758 756 756 754 753 752 751 750 748 747 746 745 743 742 740 739 738 737 735 734 733 732 731 730 730 729 727 725 723 722 721 720 719 717 715 712 709 706 702 699 696 693 692 691 689 687 685 683 681 680 679 678 677 676 674 672 670 668 667 666 664 663 661 660 659 658 657 656 655 655 654 653 652 651
770 769 768 767 766 765 764 763 762 761 759 758 757 756 754 753 752 751 750 748 747 746 745 743 742 740 739 737 736 735 734 732 731 730 729 728 727 726 725 724 722 720 719 718 716 715 713 711 708 705 703 700 696 693 690 689 688 686 685 682 679 677 676 676 675 674 672 671 669 667 665 663 662 661 660 658 657 656 655 654 653 652 652 652 651 650
770 768 767 766 765 764 763 762 761 760 759 757 756 755 753 752 751 750 748 747 746 744 743 742 740 739 737 736 735 733 732 731 729 728 727 726 725 724 723 721 720 718 717 716 714 713 711 709 707 704 701 699 696 692 689 687 686 685 684 681 678 675 674 674 673 672 670 668 666 665 663 662 660 659 658 656 655 654 653 653 651 651 650 650 649 648
769 768 767 766 765 763 762 761 760 759 758 757 756 754 753 752 750 749 747 746 744 743 742 741 739 737 735 734 732 731 730 729 727 726 725 723 722 721 720 719 718 716 715 714 712 710 709 707 705 703 700 698 695 691 688 685 684 683 682 680 677 674 672 670 670 669 668 666 664 663 662 660 658 657 656 654 653 652 651 651 650 649 648 647 646 646
769 767 766 765 764 763 761 761 759 758 757 756 755 753 752 751 750 748 747 745 743 742 741 740 738 736 734 732 730 729 728 727 726 724 723 722 721 720 718 717 716 715 713 712 710 708 706 705 703 701 698 696 694 691 687 683 681 681 680 678 677 674 671 667 666 666 666 664 662 661 660 658 656 655 653 652 651 650 649 648 647 646 646 645 644 643
768 767 766 764 763 762 761 760 759 757 756 755 754 752 751 750 749 747 746 744 742 741 740 738 737 735 733 731 729 727 726 725 723 722 721 720 719 718 716 715 714 712 711 710 708 706 704 702 700 698 696 695 692 689 686 682 680 678 676 676 675 673 670 666 664 664 663 661 660 659 657 656 654 653 651 650 648 647 646 645 644 643 642 642 641 640
767 766 765 764 763 761 760 759 758 757 756 754 752 751 750 748 747 746 745 743 741 740 739 737 736 734 732 730 728 726 724 722 721 720 719 718 716 716 714 713 711 710 709 708 706 704 702 700 697 695 694 692 690 687 684 681 678 676 674 673 672 670 667 665 663 662 660 658 657 656 655 654 652 651 649 647 645 644 643 642 641 640 639 639 638 637
766 765 764 763 762 761 760 758 757 756 754 753 751 750 748 747 746 745 743 742 741 739 737 736 735 733 731 729 726 725 723 721 719 717 716 715 714 713 712 711 709 708 706 705 703 702 700 698 696 694 692 690 687 684 681 680 677 674 671 670 669 667 665 662 661 660 658 656 655 653 652 651 651 649 646 644 642 641 640 639 638 637 636 635 634 633
766 765 763 762 761 760 759 757 756 755 753 751 750 749 747 746 745 743 742 741 739 738 736 735 733 732 730 728 726 724 722 719 717 715 714 712 711 710 709 708 707 705 704 702 701 699 697 695 694 692 690 688 684 680 677 676 675 673 670 667 666 664 662 660 658 657 656 654 652 651 650 649 648 646 644 641 639 637 636 635 635 634 633 632 631 630
765 764 763 761 760 759 757 756 755 754 752 750 749 747 746 745 744 742 741 739 738 736 735 733 732 730 728 726 724 723 721 719 716 714 712 710 709 707 706 705 704 703 701 700 698 696 694 692 690 689 688 686 682 678 674 672 671 670 668 666 664 662 660 657 655 654 653 651 650 649 648 647 646 643 641 639 636 634 632 631 631 630 629 628 627 626
764 763 762 761 759 758 756 755 754 752 751 749 747 746 744 743 742 741 740 738 737 736 734 732 730 728 726 724 722 721 719 717 715 712 710 708 707 706 704 703 701 700 698 696 695 693 691 688 686 685 684 682 680 676 672 670 668 667 666 664 662 660 657 654 652 651 650 649 647 646 645 644 643 641 639 637 634 631 628 627 626 626 625 625 624 623
763 762 761 760 758 757 756 754 753 751 750 748 746 745 743 742 741 740 739 737 736 734 733 731 729 727 725 722 721 719 717 715 713 711 708 707 706 704 702 701 700 698 696 693 691 690 687 685 682 680 679 678 677 674 671 668 666 664 663 661 659 657 655 652 650 648 647 646 644 643 642 641 639 638 637 635 631 628 625 623 622 621 621 621 620 619
762 761 760 759 757 756 755 753 751 750 748 747 745 744 742 741 740 738 737 736 734 733 731 729 727 726 723 721 719 717 715 713 711 709 706 705 704 703 701 700 698 696 694 691 689 686 684 681 678 675 674 673 673 672 669 666 664 662 660 657 656 655 653 650 647 646 644 643 641 640 639 637 636 634 633 631 629 626 622 619 617 616 616 617 616 616
Wind_Speed
8 8 9 9 9 9 9 9 10 11 12 12 13 14 14 15 15 16 16 16 15 15 15 15 15 16 16 16 16 16 17 19 20 21 21 20 20 19 19 19 19 18 18 18 18 18 18 18 18 19 19 18 18 18 18 18 18 19 19 19 19 19 19 19 20 20 21 21 22 23 24 25 25 25 24 24 24 24 23 24 24 24 25 25 26 26
8 8 8 8 8 9 9 9 10 10 12 12 13 14 15 15 16 15 15 15 15 15 15 15 15 15 15 15 15 16 17 19 20 21 21 20 19 18 17 17 17 17 16 16 17 17 17 17 17 17 18 18 18 18 18 18 18 18 18 18 19 19 19 20 20 20 21 22 23 23 24 25 25 25 25 25 25 25 24 24 23 23 23 24 24 24
9 9 9 8 8 9 10 10 10 11 12 13 13 13 14 15 16 15 15 15 15 14 14 14 15 15 15 15 15 16 17 19 21 21 21 20 19 17 16 16 15 15 15 15 16 16 16 16 16 16 17 17 17 18 18 18 18 18 18 18 18 18 18 19 19 20 21 22 23 24 24 25 25 25 25 25 25 26 26 25 24 24 24 24 24 25
10 10 10 9 9 10 10 11 11 12 12 12 13 14 14 15 15 15 15 15 15 14 14 14 14 15 15 15 15 16 18 20 21 22 22 21 20 18 16 15 15 15 15 15 16 16 16 16 16 16 16 16 16 17 17 17 18 18 18 18 18 18 18 18 18 18 19 19 20 21 22 23 23 24 24 24 24 25 25 25 25 24 24 24 24 25
10 11 11 11 11 11 12 12 12 12 13 13 13 13 14 14 14 15 14 14 14 14 14 14 14 14 15 15 15 17 19 20 22 23 23 22 21 19 17 16 16 16 16 17 17 17 17 17 17 17 17 17 17 17 17 17 18 18 18 18 18 18 18 19 19 19 18 18 18 18 18 17 18 18 18 19 20 21 22 22 22 22 22 23 23 24
10 11 11 11 11 12 13 13 12 13 13 13 13 13 14 14 14 14 14 14 14 14 14 14 14 15 15 16 16 17 19 20 21 22 22 21 20 19 18 17 17 17 18 19 19 19 19 19 19 19 19 19 18 18 18 18 18 18 18 19 19 20 21 21 21 21 20 19 19 18 17 16 15 15 14 15 16 17 18 18 19 20 21 21 22 23
11 11 11 12 12 12 12 12 12 12 12 13 13 14 14 14 14 13 13 13 14 14 15 15 15 15 15 16 17 17 18 19 19 20 19 19 19 18 18 17 18 18 19 20 21 21 21 21 21 21 20 20 20 20 19 19 19 18 18 19 19 20 21 22 22 23 23 22 21 21 20 19 18 18 17 17 17 17 17 18 19 20 21 21 22 23
12 12 12 12 12 12 12 11 11 11 11 12 13 14 14 14 13 13 13 13 14 14 15 16 16 15 15 16 16 17 18 18 18 18 18 18 17 17 17 18 19 20 20 21 22 22 22 23 23 22 22 21 21 21 20 20 19 19 19 19 19 19 20 21 22 22 23 23 23 23 23 22 22 22 21 21 21 20 21 21 21 22 22 23 23 24
12 12 12 11 11 12 12 12 11 10 10 11 12 13 14 15 14 13 13 14 14 14 15 16 16 16 16 16 16 17 18 18 18 18 18 17 17 17 18 19 20 21 21 21 22 22 23 23 23 23 23 22 22 21 21 20 20 19 18 18 18 18 19 19 19 20 20 21 22 22 23 23 24 24 24 24 24 24 24 24 24 24 24 25 25 25
10 11 11 11 10 10 11 12 11 11 11 11 12 12 13 14 14 15 15 15 15 15 15 15 16 17 17 17 17 17 18 18 17 17 17 17 18 18 19 20 20 20 21 21 21 22 22 22 23 22 22 22 22 21 21 20 19 19 18 18 18 17 17 17 17 17 17 18 19 20 21 21 22 23 23 24 25 25 25 26 26 26 26 26 26 26
10 10 10 11 10 10 11 12 12 12 12 12 12 12 11 12 13 15 16 17 17 17 16 16 16 17 18 18 18 17 17 17 17 16 16 17 17 18 19 19 19 20 20 21 21 21 21 21 21 21 22 21 21 21 20 19 19 18 18 18 17 17 16 16 16 16 17 17 18 18 19 20 20 21 22 23 23 24 24 24 25 25 25 25 26 26
9 10 10 10 11 11 11 12 12 12 12 12 12 12 12 12 13 15 16 17 18 18 18 17 17 17 17 18 18 17 17 16 16 16 16 16 17 17 18 18 19 19 20 20 20 20 20 20 20 21 21 20 20 19 19 18 18 18 18 18 18 17 17 17 17 18 18 18 19 19 20 20 20 21 21 22 22 22 23 23 23 24 24 24 25 25
9 10 10 11 11 11 11 12 12 12 11 11 11 12 13 14 15 15 16 17 18 18 19 19 18 18 17 17 17 16 16 16 16 17 17 17 17 17 18 18 19 19 20 20 20 20 20 20 20 20 20 19 19 18 18 18 18 18 18 18 18 18 18 18 19 19 19 20 20 20 21 21 21 21 21 22 22 22 22 23 23 23 24 24 24 25
10 10 10 11 11 11 11 12 12 12 11 11 12 13 14 15 16 16 16 17 18 18 19 19 19 18 17 16 15 15 15 16 17 17 18 17 17 18 19 19 20 20 20 20 20 20 20 20 20 19 19 18 18 17 17 17 17 17 18 18 19 19 19 20 20 20 21 21 21 21 21 22 22 22 22 22 22 22 23 23 23 23 24 24 24 25
10 10 10 10 11 11 11 11 12 12 12 13 13 14 15 15 15 16 16 17 18 18 18 19 19 18 16 15 14 14 15 16 17 19 19 19 19 18 19 20 21 21 21 21 21 20 20 19 19 19 18 18 17 17 17 17 18 18 19 20 20 20 21 21 21 22 22 22 22 22 22 22 22 22 22 22 23 23 23 23 23 24 24 24 24 24
10 10 10 11 11 11 11 12 12 12 13 14 14 14 15 15 15 15 16 17 17 18 17 18 18 17 16 15 14 14 15 16 18 19 21 21 20 20 20 21 21 21 21 21 20 20 19 19 18 18 18 18 18 18 18 18 19 20 21 21 21 22 22 22 22 22 22 23 22 22 22 22 22 22 23 23 23 23 23 24 24 24 24 24 24 24
10 11 11 11 11 12 12 12 12 13 13 14 14 14 14 14 15 15 16 17 17 17 16 16 14 12 13 16 16 14 15 17 19 21 22 23 22 21 20 20 21 21 21 20 20 19 19 18 18 18 18 18 19 19 20 21 21 22 22 22 22 23 23 23 23 23 23 23 23 23 23 23 23 23 23 23 23 23 24 24 24 24 24 24 24 24
11 11 11 12 12 12 12 12 12 13 13 13 14 14 14 15 15 16 16 16 16 16 16 16 14 12 11 14 16 17 17 19 21 22 23 24 23 22 20 20 20 20 20 20 19 19 19 19 19 19 19 20 21 21 22 22 22 22 22 23 23 23 23 23 23 23 24 24 24 23 23 23 23 23 23 23 23 23 24 24 24 25 25 25 25 25
11 11 11 12 12 12 12 12 12 12 13 13 14 15 15 16 16 16 16 16 16 16 16 16 16 16 16 17 19 20 19 20 22 23 23 23 23 22 20 19 19 19 20 19 19 19 19 19 19 20 21 21 21 21 21 22 22 22 23 23 23 24 24 24 24 24 24 24 24 24 24 23 23 23 23 23 23 23 23 23 24 24 25 25 25 25
12 12 11 11 12 12 12 12 12 12 13 14 15 16 16 17 17 16 16 16 16 16 17 17 17 17 18 19 21 21 21 21 22 22 22 22 22 21 19 18 19 19 19 19 19 19 19 19 20 20 20 21 20 21 21 21 22 22 23 23 24 24 24 24 24 24 24 24 24 24 24 24 24 23 23 23 23 23 23 23 23 24 24 25 25 25
12 12 11 11 11 12 12 12 12 13 14 15 16 16 16 16 16 16 16 17 17 17 17 17 17 18 19 20 21 22 21 21 21 21 20 20 20 19 18 18 18 19 19 20 19 19 19 20 20 20 20 20 21 21 21 22 23 23 24 24 24 24 24 24 24 24 24 24 24 24 24 24 24 23 23 23 23 23 23 23 23 24 24 24 25 25
11 11 11 11 11 11 12 13 14 14 15 16 16 16 16 16 16 17 17 17 17 18 17 18 19 20 20 21 22 22 21 20 19 19 19 18 19 19 18 18 18 19 19 20 20 20 20 20 20 20 20 21 21 22 22 23 23 24 24 24 24 24 24 24 24 24 24 24 24 24 24 24 23 23 23 22 22 22 22 23 23 23 23 24 24 25
10 10 10 11 11 12 13 14 15 15 15 15 16 16 16 16 17 17 18 18 18 18 19 19 20 21 21 21 21 20 18 17 17 17 17 15 17 19 19 18 19 19 19 20 21 21 20 20 20 21 21 21 22 22 23 23 24 24 24 24 24 24 24 24 24 24 24 24 24 24 23 23 23 22 22 22 22 22 22 23 23 24 24 24 24 25
9 10 11 11 12 13 14 15 16 16 16 16 17 17 17 17 17 18 18 18 18 18 19 19 20 19 19 19 18 17 16 15 15 15 15 15 17 19 19 19 19 20 20 20 21 21 21 21 21 21 22 22 22 23 23 24 24 24 24 24 24 24 24 24 24 24 24 24 24 24 23 23 22 22 22 22 22 23 24 24 25 25 25 25 25 25
9 10 11 12 14 15 16 17 18 18 18 18 18 17 17 17 17 17 17 17 16 16 16 17 17 17 17 16 16 15 15 14 14 14 15 16 17 19 19 19 19 19 20 21 21 21 22 22 22 22 22 23 23 23 23 23 23 23 23 23 23 23 24 24 24 24 24 24 24 24 23 23 23 24 24 24 25 25 26 27 27 27 27 27 27 27
11 12 13 15 17 18 19 20 20 19 18 17 17 16 15 15 15 15 15 14 14 14 14 14 14 15 15 15 15 15 15 14 14 15 15 16 17 18 19 18 18 19 21 22 22 22 22 22 23 23 23 23 23 23 22 22 22 22 22 22 22 23 23 23 23 24 24 24 25 25 25 25 26 26 27 27 28 28 28 28 28 28 28 29 29 29
13 15 16 17 18 18 18 18 17 17 16 15 14 14 14 13 13 13 13 12 12 12 12 12 12 13 14 14 14 15 16 16 15 15 15 16 16 17 18 17 18 20 21 22 22 22 22 23 24 23 23 22 22 21 20 20 20 21 21 22 22 23 23 23 24 24 25 25 26 26 27 27 28 28 29 29 29 29 28 28 28 28 28 28 28 29
14 15 16 16 17 16 16 15 14 13 13 12 12 11 11 11 11 11 11 11 11 11 11 11 11 11 12 13 15 16 17 17 16 15 14 14 14 15 17 18 19 20 21 22 23 23 23 23 23 22 21 20 20 19 19 19 20 21 22 22 23 23 24 24 25 25 25 25 26 26 27 27 28 28 28 28 28 28 27 27 27 26 26 26 26 26
14 15 15 15 14 14 13 13 12 11 10 10 10 10 9 9 10 10 11 11 11 11 11 12 12 12 13 15 16 17 17 16 14 13 13 13 13 15 18 18 19 19 20 22 23 24 22 21 20 19 18 18 19 19 19 20 20 21 22 23 23 23 24 24 24 24 24 25 25 25 26 26 26 27 27 27 27 27 26 26 25 25 24 24 24 24
14 14 14 13 12 12 11 11 11 10 10 10 10 9 9 9 9 10 10 10 10 11 12 12 13 13 14 15 14 13 13 13 12 11 12 12 14 16 18 18 18 18 18 18 16 16 18 20 18 17 17 17 18 19 20 20 21 22 22 23 23 23 23 22 22 23 23 24 24 24 25 25 25 26 26 26 26 26 26 25 25 24 23 22 22 23
14 13 12 12 11 11 10 10 10 10 10 10 9 9 8 8 8 9 9 10 10 11 12 12 13 13 13 12 9 6 7 12 13 12 13 14 15 16 17 18 18 18 16 14 8 5 10 15 17 18 16 18 19 20 21 21 21 22 22 22 22 22 21 21 22 22 23 23 23 23 24 24 25 25 25 25 25 25 25 25 24 23 23 22 22 22
13 12 12 11 11 10 10 9 9 9 9 9 9 8 8 8 8 9 9 10 10 11 12 12 13 14 14 12 9 8 10 14 16 15 14 14 15 16 17 17 17 17 17 15 13 9 8 9 15 21 20 20 20 21 21 21 21 21 21 21 21 22 21 21 21 22 22 22 22 22 23 23 24 24 24 25 25 25 25 25 25 24 23 22 22 22
12 12 11 11 10 10 10 9 9 9 9 9 9 9 9 9 9 9 10 10 11 11 12 13 13 14 14 15 14 15 16 18 17 16 15 14 15 16 16 17 17 18 18 17 17 17 14 14 18 23 23 22 21 20 20 20 20 20 20 21 21 22 21 21 21 21 21 21 22 22 22 23 23 23 24 24 25 25 25 25 25 24 23 23 23 23
12 12 11 11 11 10 10 10 10 10 10 10 9 9 9 9 10 10 11 11 12 12 12 13 14 14 14 15 16 17 18 18 17 15 14 14 14 15 17 17 18 18 18 17 17 17 17 19 20 21 21 22 21 20 20 20 20 20 20 20 20 21 21 21 21 21 22 22 22 22 22 22 22 22 23 23 23 24 24 24 24 24 24 24 23 23
12 11 11 11 11 11 11 11 10 10 10 10 10 10 10 10 11 11 11 12 13 13 14 14 14 15 15 15 16 17 18 18 17 15 15 14 15 16 17 17 17 17 16 17 17 16 16 18 20 20 20 21 22 22 20 19 19 20 20 20 20 21 21 21 21 22 22 22 22 22 22 22 22 22 22 22 22 22 23 23 24 24 24 25 25 24
11 11 11 11 11 11 12 12 11 11 11 11 11 11 11 11 12 12 13 13 14 14 15 16 16 17 17 17 18 18 19 19 18 17 16 16 16 17 17 17 17 17 16 17 17 17 16 18 20 21 20 19 19 20 21 20 19 19 20 20 21 21 21 21 21 22 22 23 23 23 23 23 22 22 22 22 23 23 24 24 25 25 25 26 26 26
11 11 11 11 11 12 12 12 12 12 12 12 12 13 13 13 13 14 14 15 15 16 17 17 18 18 19 19 20 21 21 21 20 19 19 19 18 18 18 19 19 18 18 17 18 18 18 18 19 20 19 18 17 18 20 21 21 21 21 21 21 21 22 22 22 22 23 23 24 23 23 23 23 23 23 23 24 24 24 24 24 24 25 25 26 27
11 12 12 12 12 12 12 12 13 13 13 13 14 14 14 15 15 15 15 16 16 17 17 17 18 18 19 20 22 23 24 24 24 23 22 22 21 21 20 20 20 19 19 18 18 19 18 17 14 13 15 17 19 21 22 22 22 22 22 23 22 22 23 23 22 22 22 23 23 23 24 24 24 24 24 23 23 23 23 22 22 22 22 23 24 25
12 12 12 12 12 12 13 13 13 14 14 15 15 16 16 16 16 16 16 16 16 16 17 17 18 19 20 21 22 23 24 25 25 25 24 24 23 22 21 20 20 20 20 19 18 19 19 18 16 14 14 16 20 23 24 23 22 23 24 24 24 23 22 21 20 20 21 22 23 24 24 24 24 24 23 23 22 22 22 22 21 20 20 20 21 22
12 13 13 13 13 13 13 14 14 15 15 16 16 16 16 16 16 16 16 16 16 16 17 17 18 18 19 19 19 20 21 22 23 23 23 23 23 22 21 21 21 21 20 20 19 19 19 19 20 21 21 20 21 22 23 23 23 23 24 23 23 23 22 21 21 21 22 22 23 24 24 24 24 23 23 23 22 22 22 22 21 20 20 19 19 20
13 13 13 14 14 14 14 15 15 15 16 16 16 16 16 16 16 16 16 16 16 16 16 16 17 17 18 18 18 18 19 20 20 21 21 22 23 23 22 22 21 21 21 20 20 20 20 20 21 22 23 23 23 24 24 24 24 24 24 23 23 25 25 24 23 23 23 23 23 23 23 23 23 23 23 23 23 23 22 22 22 22 21 21 20 19
13 13 14 14 14 15 15 15 15 16 16 16 16 16 16 16 16 16 16 17 17 17 17 17 17 17 18 19 19 18 18 18 18 19 20 21 22 22 23 22 21 20 20 20 20 20 20 20 21 22 23 23 23 23 24 25 25 24 23 23 25 26 26 25 23 21 20 21 21 21 22 22 23 23 23 23 23 23 23 22 22 23 22 22 22 21
13 14 14 15 15 15 16 16 16 16 15 15 15 16 16 16 16 16 16 17 17 17 17 17 17 18 19 19 19 18 18 17 17 17 18 18 19 20 21 21 21 21 20 19 19 20 22 21 21 22 23 23 23 23 24 25 26 25 25 24 24 23 21 22 23 22 21 21 22 22 23 23 23 23 24 24 24 24 23 23 24 24 23 23 23 23
14 15 15 15 15 15 15 15 15 15 15 15 16 16 16 16 16 16 16 17 17 17 17 17 17 18 18 19 19 19 19 18 18 17 17 18 18 19 20 20 21 21 21 20 20 21 22 22 22 23 23 22 23 24 25 25 26 26 26 25 24 22 22 23 24 24 24 23 23 23 23 23 23 24 24 24 24 24 24 24 24 24 24 23 23 23
15 15 15 15 15 15 15 15 15 16 16 16 16 16 17 17 16 16 16 17 17 17 17 17 16 16 17 18 18 19 19 19 19 18 18 18 18 18 18 19 20 20 20 21 21 21 21 21 22 23 23 23 23 24 25 26 26 26 26 25 24 24 25 26 25 25 24 24 24 23 23 23 22 23 23 24 24 24 23 23 23 23 24 24 23 23
14 14 14 15 15 15 16 16 15 16 16 16 17 17 17 17 16 16 16 17 17 17 17 17 16 15 16 17 18 19 19 20 20 20 19 18 18 17 17 18 18 19 19 20 21 22 22 22 23 24 24 24 24 25 26 26 25 25 26 26 25 24 25 25 24 24 23 23 23 23 22 22 21 22 23 24 24 25 24 24 24 24 24 24 24 24
14 15 15 15 15 15 16 16 15 15 16 17 17 17 17 17 17 16 17 17 17 17 17 17 16 15 16 17 18 18 18 19 20 21 20 20 19 18 18 18 18 18 19 20 21 22 23 24 25 24 24 23 24 26 27 26 25 24 24 25 24 23 23 24 24 23 23 23 23 23 23 21 21 22 23 24 25 25 25 25 25 24 25 25 25 25
15 15 15 15 15 15 16 16 16 16 16 17 17 18 18 17 17 17 17 17 17 16 17 16 16 16 16 17 18 18 18 19 20 21 21 21 20 19 18 18 18 18 19 20 22 23 24 26 27 27 25 24 24 25 27 26 25 24 24 24 24 23 24 25 25 24 23 24 25 25 24 22 22 22 24 24 24 25 25 25 25 24 24 25 24 24
14 15 15 15 15 15 16 16 16 16 17 17 18 18 18 18 18 17 17 17 17 16 16 16 16 17 17 17 18 19 19 20 20 20 21 20 20 19 19 18 19 19 20 21 21 22 23 25 26 27 27 27 26 26 27 27 26 25 24 24 24 23 24 25 25 25 24 24 25 25 25 24 23 23 24 23 24 26 27 26 26 25 25 25 25 25
15 15 15 15 15 15 16 16 17 17 18 18 18 19 19 19 18 17 17 16 16 16 16 16 17 17 17 18 18 19 19 19 20 20 20 20 19 19 19 19 19 19 20 21 21 21 21 22 23 24 25 26 27 27 27 27 26 25 24 24 23 23 23 24 25 25 24 24 25 25 25 24 24 24 24 24 24 26 27 27 27 26 26 25 25 26
15 15 15 15 15 16 16 17 17 17 18 18 19 19 19 19 18 18 17 16 16 17 17 17 17 17 18 18 19 19 19 20 19 20 21 20 20 19 19 19 19 19 18 18 18 18 18 17 17 19 21 22 23 25 26 26 25 24 23 24 23 23 23 24 24 25 24 24 24 25 25 24 24 24 24 23 23 24 24 26 27 27 26 24 24 25
Wind_Direction
285 289 293 299 303 305 306 311 315 316 316 319 320 320 321 321 320 319 319 318 317 316 316 315 314 314 313 313 313 313 313 316 320 324 327 328 326 324 321 319 318 316 315 313 311 309 308 306 305 304 304 305 305 306 305 303 302 300 298 296 295 293 292 291 289 288 287 286 285 284 282 279 278 276 273 271 270 270 271 270 270 271 272 274 274 274
290 291 292 297 301 304 305 311 315 317 317 318 319 319 320 320 318 317 316 315 314 314 313 313 312 312 311 311 310 310 312 316 321 325 329 330 329 326 323 321 319 318 318 317 316 315 314 312 309 307 305 305 304 303 304 304 304 303 301 299 297 296 294 292 291 289 288 287 286 284 282 280 278 275 273 270 269 269 269 270 271 273 275 276 277 276
298 297 296 300 304 306 308 312 314 315 316 316 316 317 318 317 315 314 313 312 311 311 310 310 310 310 309 309 308 308 310 314 319 323 326 328 328 326 323 320 319 318 319 320 320 319 318 316 314 312 309 308 305 302 301 302 303 303 301 300 300 300 298 297 295 294 291 289 287 284 281 279 276 274 272 270 269 268 268 270 272 275 277 278 278 277
299 299 302 307 308 308 308 311 313 314 314 313 313 314 314 313 312 310 309 308 308 308 307 307 307 307 307 306 306 307 308 312 316 319 322 323 324 323 320 318 317 317 318 320 321 322 321 319 317 315 312 309 306 303 300 299 298 297 297 296 297 299 299 298 297 296 294 291 289 287 284 280 277 274 271 270 269 269 269 271 274 277 278 279 278 277
301 303 307 311 310 308 308 310 311 311 311 309 310 311 312 310 307 306 305 305 306 306 306 306 305 304 304 303 304 304 306 309 312 315 317 318 319 318 316 313 312 313 315 317 318 319 319 319 317 315 313 310 307 303 300 298 296 293 292 291 291 291 292 290 288 286 286 286 287 288 287 288 285 281 276 274 271 270 271 274 276 278 279 279 279 278
305 307 310 310 308 306 308 308 309 309 310 308 309 309 309 306 304 303 302 304 305 305 304 303 302 301 301 301 301 302 304 306 308 310 311 312 312 311 309 308 307 308 310 312 313 314 314 314 313 312 311 309 307 304 301 298 295 293 290 288 286 284 283 281 280 279 279 281 281 281 283 287 290 290 286 283 278 276 277 277 278 278 278 279 279 278
305 306 309 307 304 304 305 305 306 308 309 309 310 310 308 305 303 301 301 302 303 304 304 303 302 301 300 300 301 302 303 304 305 305 305 306 305 304 303 303 304 305 307 308 309 310 310 310 309 308 307 306 304 303 301 299 297 294 291 289 287 284 282 280 278 278 278 279 279 279 279 280 282 285 285 283 282 283 283 282 280 279 279 279 279 279
305 305 305 304 304 304 303 302 304 307 308 309 310 310 309 307 305 303 302 303 305 306 306 306 305 303 302 303 303 303 303 304 304 304 303 303 303 302 302 302 303 304 305 306 307 307 308 308 307 306 305 304 302 301 300 298 297 295 293 292 290 288 286 284 282 280 280 280 280 280 280 280 280 281 282 282 282 283 283 282 282 282 281 280 280 280
302 303 303 303 304 306 305 303 303 306 308 307 307 308 308 308 308 308 309 309 310 310 309 308 307 306 305 305 305 304 303 302 302 302 302 302 302 302 302 302 303 303 303 304 305 305 306 306 306 305 305 304 302 301 300 298 297 296 295 294 293 292 290 289 287 286 284 284 283 283 283 282 282 282 282 282 282 282 282 281 282 282 282 282 281 280
300 302 305 304 304 304 304 304 306 308 308 306 303 302 304 307 311 314 314 314 314 313 311 310 309 308 308 307 306 305 303 302 301 300 300 300 300 300 300 301 301 302 302 302 303 303 304 304 304 304 304 304 303 303 301 300 298 297 297 296 296 296 295 294 294 294 294 293 292 291 289 288 287 286 285 284 283 283 282 282 281 281 281 281 280 280
304 304 305 305 306 304 302 303 306 310 310 307 305 303 304 310 315 317 317 316 315 315 313 311 309 309 309 309 308 306 305 304 303 303 303 302 302 301 301 301 301 301 302 302 302 303 303 303 303 303 303 303 303 302 302 301 299 299 299 300 301 301 301 301 302 303 303 302 301 300 298 296 294 292 290 288 286 285 284 283 282 281 280 279 279 278
306 306 305 306 307 308 306 306 308 311 313 312 312 312 314 317 319 318 315 314 314 314 313 312 310 309 308 308 308 307 306 305 306 307 307 307 306 306 305 305 305 304 304 304 304 304 304 304 304 304 303 302 301 301 300 300 299 300 301 304 305 305 305 305 304 304 303 303 302 301 299 298 296 294 291 289 287 286 284 283 282 281 280 279 278 277
303 304 305 306 307 309 310 311 313 315 316 317 317 317 318 319 318 316 311 310 310 312 312 312 311 309 308 307 307 307 307 307 307 308 308 308 308 308 308 308 308 307 306 305 305 305 305 304 304 304 303 302 301 300 299 299 299 301 302 303 304 304 304 303 302 302 301 301 300 299 298 297 295 293 291 289 287 286 284 282 282 281 280 279 278 278
306 308 308 308 308 310 312 314 314 315 316 317 317 316 315 315 315 314 311 309 309 311 312 311 310 309 308 308 307 308 309 309 310 309 308 308 308 309 309 308 307 306 305 305 304 304 304 304 304 304 302 301 301 301 300 300 300 301 301 302 301 301 301 300 300 300 300 300 300 299 298 297 295 293 291 289 287 285 284 282 281 281 280 279 278 277
312 312 311 309 310 311 313 314 314 313 314 314 315 314 314 314 314 314 313 311 311 312 312 311 309 309 308 308 309 310 311 311 311 310 309 307 307 308 308 307 305 304 303 303 302 302 303 303 303 302 302 301 300 300 300 301 301 301 301 301 301 300 299 299 299 299 299 299 299 298 298 297 296 294 291 289 287 285 284 283 281 280 280 279 278 277
313 311 309 308 309 309 311 312 312 312 312 313 314 315 316 315 315 315 314 312 312 313 313 313 313 311 310 309 310 312 313 312 311 310 308 306 306 307 307 305 303 302 302 301 301 301 302 302 302 301 301 300 300 300 300 300 301 301 301 301 300 299 299 298 298 298 298 298 298 298 297 297 295 294 292 290 287 285 284 282 281 280 279 278 278 277
308 307 306 306 306 307 308 309 309 310 311 312 313 315 315 315 314 314 313 312 312 313 313 314 314 313 312 311 311 313 315 314 312 309 307 305 305 306 306 303 301 300 301 300 300 300 301 301 301 301 300 300 300 300 299 299 299 299 299 299 299 298 298 298 298 297 297 297 297 297 297 296 295 295 293 291 288 285 284 282 281 280 279 278 277 276
302 302 303 303 303 305 307 308 309 309 311 313 315 315 314 313 312 311 310 310 310 311 311 311 309 308 308 309 310 313 317 315 312 309 307 304 304 306 306 303 301 299 300 299 299 300 300 300 300 300 299 299 299 299 298 298 298 298 298 298 298 298 297 297 297 296 296 296 296 296 295 295 295 294 294 291 289 286 284 282 281 280 279 278 277 276
298 299 300 301 302 304 306 307 309 312 314 316 317 315 313 311 310 309 307 307 307 307 307 306 305 303 303 303 306 311 315 314 311 308 305 304 304 306 307 305 302 300 300 300 300 301 301 300 299 299 299 298 298 298 298 298 298 297 297 297 297 297 297 296 296 296 296 296 295 295 294 294 294 293 293 292 291 289 286 284 282 280 279 277 276 275
295 296 297 300 303 305 305 306 308 312 315 316 315 313 310 309 308 307 306 306 305 304 304 302 301 301 301 301 304 308 312 313 310 307 303 302 303 305 308 306 304 303 302 301 302 303 303 302 301 301 300 300 300 300 299 299 298 298 297 297 297 296 296 296 295 295 295 295 295 294 294 294 293 292 292 292 291 290 290 287 285 283 280 278 276 275
293 293 296 301 305 305 304 305 307 310 312 313 312 310 307 307 306 306 305 306 304 303 302 300 299 299 301 301 302 305 309 309 307 304 303 302 302 304 307 307 306 304 303 303 303 304 304 304 303 302 301 301 301 301 300 300 299 298 297 297 296 296 295 295 295 295 295 294 294 294 293 293 293 292 291 291 291 290 290 289 287 285 282 280 278 276
291 293 298 304 305 304 302 303 305 307 308 309 308 305 304 304 304 304 303 303 302 301 299 297 296 297 298 298 298 300 303 303 301 301 302 301 301 303 307 308 307 305 303 304 304 305 305 304 303 302 301 301 301 301 300 299 299 298 297 296 296 295 295 295 294 294 294 293 293 293 292 292 292 291 291 291 291 291 291 291 290 288 285 283 280 276
293 297 301 304 303 302 301 302 303 303 304 304 302 299 299 299 298 298 298 298 297 297 296 295 295 295 295 294 294 297 299 299 299 300 300 299 299 303 308 309 307 304 303 303 304 305 304 303 302 301 300 300 300 300 299 298 298 297 297 296 295 295 295 294 294 294 293 293 292 291 291 290 290 290 290 291 291 291 291 292 293 292 291 288 284 280
298 299 300 301 300 300 300 300 301 301 301 300 298 296 294 293 292 292 292 292 292 293 294 295 295 294 294 294 295 297 299 301 302 302 300 297 298 302 306 307 306 303 302 303 304 304 304 302 301 300 300 299 299 298 297 297 297 296 296 295 295 295 294 294 294 293 292 292 291 290 290 289 289 289 289 289 290 289 289 290 291 292 292 292 291 288
299 298 298 297 297 297 298 297 297 297 297 297 296 295 294 293 292 291 290 290 290 291 293 294 294 295 296 299 300 300 302 304 306 304 301 298 297 299 302 304 304 302 301 303 304 304 303 302 301 300 299 298 298 297 296 295 295 295 295 294 294 294 294 293 293 292 292 291 291 290 290 289 288 288 287 288 288 289 289 289 288 288 288 289 290 290
297 296 295 295 295 295 295 295 294 294 294 294 294 294 295 296 295 294 293 291 291 293 295 296 295 296 299 302 302 302 303 305 306 303 299 298 297 298 300 302 302 302 302 303 304 304 303 302 301 300 299 298 297 296 295 294 294 294 294 294 294 294 293 293 292 291 291 290 290 289 289 288 287 287 286 287 287 287 287 286 285 285 284 285 286 287
298 297 296 297 298 298 299 297 296 295 295 294 293 293 295 296 296 293 291 291 293 295 297 297 297 298 300 300 300 301 303 305 304 301 298 296 295 296 298 301 304 304 304 303 303 303 302 300 299 298 298 297 297 296 296 296 296 296 296 295 295 294 293 292 291 290 289 289 288 287 287 286 286 286 286 286 286 286 285 285 284 284 283 283 282 282
303 302 303 304 303 304 304 303 301 300 299 298 297 295 295 295 292 289 288 292 295 297 295 294 296 298 299 299 299 301 302 302 300 299 299 296 293 293 298 302 305 306 306 304 303 302 300 298 297 297 296 297 297 298 298 299 299 299 298 297 295 294 292 291 290 289 288 287 286 286 286 286 285 286 286 286 286 285 285 284 284 284 283 282 279 277
309 308 308 307 306 307 307 307 307 305 305 304 302 300 296 291 286 284 287 293 296 294 291 291 292 294 296 298 299 299 299 297 298 301 305 302 296 294 299 302 305 306 307 306 306 304 300 297 296 297 297 298 300 301 301 302 302 301 300 298 296 294 293 291 290 289 288 287 286 285 285 285 285 285 285 285 285 284 284 284 284 284 283 280 277 275
315 314 313 311 310 309 309 308 308 308 308 306 303 300 295 287 282 282 287 291 292 291 290 291 291 293 296 299 301 300 297 296 301 309 314 308 300 297 301 302 304 306 308 309 308 305 302 300 299 299 300 301 302 302 302 303 302 302 300 299 297 295 293 292 291 289 288 287 286 285 284 284 283 283 283 283 283 283 283 283 283 283 282 280 277 275
318 317 316 315 314 312 310 308 306 305 304 303 301 298 292 287 283 283 286 288 288 288 288 289 291 292 295 298 300 299 295 297 303 311 314 307 299 297 301 302 302 303 306 307 307 307 305 304 303 302 303 303 303 302 301 301 301 300 300 299 297 296 294 293 293 291 290 289 287 286 285 284 282 282 281 281 280 280 280 280 281 280 280 279 277 275
319 317 316 315 314 313 311 309 307 305 304 303 301 297 293 288 285 284 284 284 284 285 285 286 287 289 289 287 284 283 287 293 299 305 309 303 298 296 299 299 300 301 301 299 295 292 298 301 303 304 304 304 302 300 299 299 299 298 298 297 296 295 295 295 295 294 292 291 289 288 286 284 283 281 280 279 278 278 277 277 277 277 276 276 274 273
318 316 315 315 314 313 311 310 308 308 306 304 303 300 297 292 288 286 284 284 283 282 283 284 285 285 285 283 280 279 282 287 293 299 303 300 297 296 297 298 299 299 300 296 292 288 286 289 297 301 302 301 300 299 298 298 297 297 296 295 295 294 295 296 295 294 293 292 291 290 288 286 284 282 280 279 277 276 275 274 273 273 272 272 272 272
318 317 315 315 315 314 313 312 310 310 308 306 304 302 300 297 293 290 287 286 284 281 280 279 281 282 283 283 282 281 282 285 290 296 300 298 295 295 296 297 297 298 299 297 295 291 288 288 292 298 300 300 299 298 297 297 296 295 294 293 292 292 293 295 295 294 293 293 292 291 290 288 286 284 282 280 278 276 274 273 271 270 268 268 268 269
318 317 316 317 317 317 315 314 312 311 310 308 306 304 302 300 297 294 290 287 284 281 278 275 274 274 276 278 280 281 283 285 290 296 298 296 294 293 294 293 294 296 297 296 296 295 292 291 292 295 297 299 299 298 297 296 295 294 293 291 290 290 291 292 293 292 292 292 291 290 289 289 287 285 283 281 279 277 275 273 272 270 267 266 265 265
317 317 317 318 317 317 315 314 313 312 311 309 308 307 304 302 299 296 292 289 285 282 278 275 272 270 270 270 272 275 279 284 289 292 293 291 290 290 290 289 290 292 293 293 293 293 292 293 294 295 295 296 298 298 298 298 297 296 294 292 291 290 290 290 290 290 291 290 289 288 288 288 287 285 284 282 280 279 277 275 273 271 269 266 264 262
316 316 316 317 316 314 313 313 313 313 312 311 310 308 305 303 300 297 294 290 287 285 282 279 276 272 270 268 269 271 275 280 284 286 286 286 285 284 283 284 286 287 287 287 289 291 292 293 294 295 294 293 294 296 299 300 300 297 294 293 292 291 290 290 290 289 288 287 286 286 286 286 286 285 284 284 283 282 280 278 275 272 270 268 265 263
316 315 314 315 314 313 312 312 312 312 312 311 309 308 305 303 300 298 295 292 289 287 284 282 280 277 274 272 272 274 277 279 281 282 281 281 280 278 278 279 281 282 281 281 283 286 289 291 292 293 293 292 292 293 296 298 299 297 295 294 293 291 290 289 288 287 286 286 285 285 286 286 286 286 285 285 285 284 282 280 278 275 273 271 268 265
316 314 313 312 312 312 311 311 310 310 310 309 307 306 304 302 300 298 296 293 291 288 286 285 284 282 281 280 279 279 280 281 281 281 281 280 278 275 273 274 277 279 280 278 278 280 282 283 285 287 291 292 293 294 294 294 295 295 296 296 295 292 290 289 288 287 286 286 286 286 286 286 285 285 285 284 284 283 283 282 280 278 276 275 272 270
314 312 311 310 310 309 309 308 308 308 308 307 306 304 303 303 302 300 298 296 294 292 290 288 287 286 285 284 283 283 282 282 283 283 282 279 277 274 271 271 274 277 279 279 277 276 276 278 280 282 284 287 289 292 293 292 291 293 295 296 294 293 292 291 290 288 286 285 285 284 284 284 284 283 283 283 282 281 281 281 280 279 277 275 274 273
312 310 310 309 309 309 307 306 306 306 306 305 305 304 304 303 303 302 302 300 299 298 297 295 294 292 291 290 288 287 285 284 283 282 279 279 278 275 272 270 271 274 277 277 277 275 274 275 278 280 281 283 285 288 288 288 289 290 292 291 290 291 292 291 289 287 286 284 282 281 281 282 283 282 282 281 280 280 279 278 278 278 276 274 272 270
309 309 308 309 308 308 306 306 305 305 305 304 303 302 302 302 302 301 302 302 302 302 303 302 301 300 299 297 296 293 291 289 286 284 282 281 279 276 273 270 269 270 272 273 274 273 272 273 275 277 279 281 284 286 287 287 288 288 288 287 288 291 293 291 288 286 284 283 283 282 282 282 282 282 281 281 280 279 278 277 276 275 274 273 270 267
308 306 306 306 305 305 305 306 306 305 305 303 302 301 301 301 299 299 298 299 300 301 303 304 304 303 301 300 300 299 297 294 291 288 285 283 281 278 274 271 269 268 269 270 272 274 276 274 273 274 277 279 281 282 284 286 287 287 286 285 287 289 291 291 290 289 287 285 283 283 282 281 281 281 281 280 280 279 278 277 275 274 272 270 268 266
306 305 305 305 305 306 306 306 306 305 305 302 301 301 301 300 298 297 296 297 298 299 301 302 303 302 301 300 301 302 302 300 298 294 289 285 282 279 275 273 271 269 267 267 269 273 278 277 276 276 276 277 278 279 281 284 285 286 286 285 283 282 281 284 287 289 288 285 283 281 280 279 280 280 280 279 279 277 276 276 274 272 270 268 266 265
304 304 305 306 307 307 307 306 305 305 304 301 300 300 301 301 299 296 294 295 296 297 299 300 301 301 301 300 302 303 304 304 302 299 296 292 287 282 278 275 272 270 267 265 265 267 271 275 277 279 279 278 277 276 278 280 282 283 283 283 282 279 278 280 282 284 284 283 282 281 280 278 278 279 279 278 277 275 274 273 272 270 270 268 265 263
301 303 304 307 308 308 307 305 304 303 302 301 300 300 300 300 298 295 293 293 293 294 297 298 298 297 297 298 301 302 303 304 303 303 301 298 294 289 284 279 275 272 270 267 265 265 265 268 272 277 280 280 278 276 275 276 278 280 281 282 282 281 281 281 280 280 280 280 280 280 279 279 278 277 277 276 276 275 274 272 270 268 268 267 265 263
302 304 305 306 306 306 306 305 304 303 302 301 300 300 300 299 297 295 294 294 293 293 295 296 294 291 291 294 297 299 300 301 301 302 301 300 298 294 290 286 280 276 272 270 268 267 265 265 267 269 273 276 278 278 277 276 276 276 278 280 281 281 280 280 280 279 279 279 279 279 279 279 278 277 276 276 276 276 274 272 269 267 266 265 264 262
303 304 304 304 304 305 305 305 304 302 301 300 300 300 300 298 297 296 294 294 294 294 295 293 292 290 289 290 293 295 295 295 296 297 298 298 297 296 294 291 288 284 280 276 273 270 268 267 265 264 264 266 270 274 277 277 276 275 276 278 279 279 279 280 280 280 279 278 277 277 277 275 274 274 276 276 276 276 274 272 269 266 264 263 261 260
302 302 302 302 303 303 302 303 302 301 299 298 299 299 300 299 298 296 295 294 294 293 292 291 290 290 289 290 291 292 293 293 293 293 294 295 295 295 295 294 292 291 288 285 281 278 275 272 267 263 259 257 260 266 271 274 275 274 275 275 276 276 277 278 279 279 279 278 277 276 274 271 268 269 272 273 274 275 274 273 270 267 264 262 260 259
302 303 301 301 301 300 300 299 299 299 298 298 298 299 300 300 299 297 295 294 293 292 289 288 288 288 288 289 290 291 291 291 291 291 291 292 293 294 294 295 295 295 294 292 290 288 286 283 277 270 262 256 254 256 261 267 272 274 274 273 272 272 273 275 277 278 278 278 278 276 273 270 266 265 268 268 270 272 273 273 271 268 266 262 260 259
303 303 302 300 299 298 298 298 297 297 297 297 298 298 299 299 299 298 296 294 293 292 290 289 287 286 286 287 288 289 289 289 288 288 289 291 293 293 293 294 294 295 294 294 295 294 294 293 290 285 280 269 258 253 253 259 266 271 273 273 273 272 273 275 276 277 277 277 278 277 275 271 268 266 266 265 267 270 271 272 271 270 267 264 261 259